GW5323 Weather Reports


time (UTC)temp
C
wind
direction
speed
KPH
gust
KPH
rain 1hr
cm
rain 24hr
cm
rain mn
cm
humidity
%
barometer
mb
20260504045413 0 235 0.0 0.0 0.00 0.00 0.00 96 1016.8
20260504044910 0 235 0.0 0.0 0.00 0.00 0.00 96 1017.0
20260504044408 0 235 0.0 0.0 0.00 0.00 0.00 96 1016.9
20260504043905 0 260 1.6 1.6 0.00 0.00 0.00 96 1016.9
20260504043401 0 227 0.0 1.6 0.00 0.00 0.00 96 1016.9
20260504042859 0 243 0.0 0.0 0.00 0.00 0.00 95 1016.7
20260504042355 0 283 0.0 0.0 0.00 0.00 0.00 95 1016.7
20260504041851 0 15 0.0 0.0 0.00 0.00 0.00 94 1016.8
20260504041348 0 117 1.6 3.2 0.00 0.00 0.00 94 1016.8
20260504040844 0 117 1.6 3.2 0.00 0.00 0.00 94 1016.7
20260504040342 0 117 1.6 3.2 0.00 0.00 0.00 94 1016.9
20260504035837 0 117 1.6 3.2 0.00 0.00 0.00 94 1016.9
20260504035336 1 315 0.0 0.0 0.00 0.00 0.00 94 1016.8
20260504034832 0 212 0.0 1.6 0.00 0.00 0.00 93 1016.7
20260504034330 0 193 0.0 0.0 0.00 0.00 0.00 93 1016.7
20260504033827 1 104 0.0 0.0 0.00 0.00 0.00 93 1016.6
20260504033325 1 221 0.0 0.0 0.00 0.00 0.00 93 1016.7
20260504032821 1 296 1.6 3.2 0.00 0.00 0.00 92 1016.9
20260504032318 1 339 0.0 0.0 0.00 0.00 0.00 92 1016.9
20260504031815 1 339 0.0 0.0 0.00 0.00 0.00 92 1016.8
20260504031312 1 340 0.0 1.6 0.00 0.00 0.00 90 1016.6
20260504030808 1 340 0.0 1.6 0.00 0.00 0.00 90 1016.8
20260504030306 1 340 0.0 1.6 0.00 0.00 0.00 90 1016.6
20260504025801 2 260 0.0 1.6 0.00 0.00 0.00 90 1016.9
20260504025259 2 260 0.0 1.6 0.00 0.00 0.00 90 1016.7
20260504024755 2 260 0.0 1.6 0.00 0.00 0.00 90 1016.7
20260504024252 2 326 0.0 3.2 0.00 0.00 0.00 89 1016.9
20260504023749 2 269 0.0 0.0 0.00 0.00 0.00 83 1016.7
20260504023245 2 269 0.0 0.0 0.00 0.00 0.00 83 1016.7
20260504022741 2 269 0.0 0.0 0.00 0.00 0.00 83 1016.8
20260504022237 2 269 0.0 0.0 0.00 0.00 0.00 83 1016.9
20260504021735 2 269 0.0 0.0 0.00 0.00 0.00 83 1016.9
20260504021232 2 269 0.0 0.0 0.00 0.00 0.00 83 1016.7
20260504020729 3 135 0.0 0.0 0.00 0.00 0.00 82 1016.7
20260504020226 3 135 0.0 0.0 0.00 0.00 0.00 82 1016.7
20260504015722 3 293 0.0 0.0 0.00 0.00 0.00 79 1016.6
20260504015218 3 293 0.0 0.0 0.00 0.00 0.00 78 1016.6
20260504014714 4 291 0.0 0.0 0.00 0.00 0.00 77 1016.5
20260504014212 5 256 0.0 0.0 0.00 0.00 0.00 76 1016.5
20260504013709 5 252 0.0 0.0 0.00 0.00 0.00 74 1016.4
20260504013206 5 252 0.0 0.0 0.00 0.00 0.00 74 1016.5
20260504012703 5 212 0.0 0.0 0.00 0.00 0.00 73 1016.6
20260504012201 5 130 0.0 1.6 0.00 0.00 0.00 70 1016.5
20260504011657 6 245 0.0 0.0 0.00 0.00 0.00 67 1016.4
20260504011153 6 240 0.0 0.0 0.00 0.00 0.00 67 1016.3
20260504010649 7 289 0.0 0.0 0.00 0.00 0.00 62 1016.3
20260504010145 7 289 0.0 0.0 0.00 0.00 0.00 62 1016.2
20260504005643 8 30 0.0 0.0 0.00 0.00 0.00 57 1016.4
20260504005139 8 30 0.0 0.0 0.00 0.00 0.00 57 1016.4
20260504004637 9 168 0.0 3.2 0.00 0.00 0.00 52 1016.2
20260504004134 9 168 0.0 3.2 0.00 0.00 0.00 52 1016.2
20260504003630 10 354 0.0 1.6 0.00 0.00 0.00 48 1016.2
20260504003127 10 354 0.0 1.6 0.00 0.00 0.00 48 1016.1
20260504002624 10 40 0.0 8.0 0.00 0.00 0.00 48 1016.3
20260504002121 10 202 4.8 4.8 0.00 0.00 0.00 48 1016.1
20260504001619 10 98 0.0 4.8 0.00 0.00 0.00 47 1016.0
20260504001115 10 348 0.0 3.2 0.00 0.00 0.00 47 1016.0
20260504000613 11 96 3.2 6.4 0.00 0.00 0.00 45 1015.9
20260504000110 11 70 8.0 8.0 0.00 0.00 0.00 45 1015.9
20260503235608 12 95 1.6 14.5 0.00 0.00 0.00 43 1016.0
20260503235104 12 41 9.7 14.5 0.00 0.00 0.00 42 1015.9
20260503234602 12 26 6.4 17.7 0.00 0.00 0.00 41 1015.8
20260503234100 12 61 4.8 11.3 0.00 0.00 0.00 43 1016.0
20260503233556 12 63 6.4 6.4 0.00 0.00 0.00 42 1016.0
20260503233052 13 28 4.8 11.3 0.00 0.00 0.00 43 1016.0
20260503232549 13 63 4.8 14.5 0.00 0.00 0.00 41 1016.0
20260503232047 13 61 3.2 8.0 0.00 0.00 0.00 41 1015.8
20260503231544 13 22 8.0 9.7 0.00 0.00 0.00 40 1015.9
20260503231041 13 314 9.7 16.1 0.00 0.00 0.00 40 1015.9
20260503230537 13 51 4.8 14.5 0.00 0.00 0.00 40 1015.8
20260503230035 13 61 6.4 17.7 0.00 0.00 0.00 39 1015.9
20260503225532 13 36 9.7 16.1 0.00 0.00 0.00 40 1016.0
20260503225027 13 39 4.8 16.1 0.00 0.00 0.00 40 1015.6
20260503224525 13 60 11.3 16.1 0.00 0.00 0.00 38 1015.9
20260503224022 13 53 6.4 19.3 0.00 0.00 0.00 40 1015.8
20260503223520 13 107 17.7 20.9 0.00 0.00 0.00 39 1015.9
20260503223015 14 36 11.3 20.9 0.00 0.00 0.00 37 1015.9
20260503222514 14 145 6.4 17.7 0.00 0.00 0.00 41 1015.9
20260503222012 13 87 3.2 9.7 0.00 0.00 0.00 39 1015.9
20260503221510 13 94 9.7 19.3 0.00 0.00 0.00 40 1015.8
20260503221007 13 29 6.4 9.7 0.00 0.00 0.00 40 1015.8
20260503220503 13 33 11.3 22.5 0.00 0.00 0.00 39 1016.0
20260503215959 13 333 9.7 12.9 0.00 0.00 0.00 40 1016.1
20260503215457 14 30 9.7 17.7 0.00 0.00 0.00 40 1016.2
20260503214954 13 36 11.3 14.5 0.00 0.00 0.00 42 1016.1
20260503214452 13 39 11.3 14.5 0.00 0.00 0.00 40 1016.1
20260503213949 12 53 9.7 14.5 0.00 0.00 0.00 40 1015.9
20260503213447 13 55 9.7 16.1 0.00 0.00 0.00 40 1015.8
20260503212943 13 58 11.3 17.7 0.00 0.00 0.00 41 1016.0
20260503212440 13 46 8.0 14.5 0.00 0.00 0.00 41 1015.9
20260503211937 13 69 9.7 19.3 0.00 0.00 0.00 40 1015.8
20260503211435 13 83 8.0 16.1 0.00 0.00 0.00 40 1015.9
20260503210930 13 87 9.7 17.7 0.00 0.00 0.00 39 1016.1
20260503210427 13 74 14.5 20.9 0.00 0.00 0.00 41 1015.9
20260503205922 13 86 9.7 16.1 0.00 0.00 0.00 40 1015.8
20260503205419 14 62 9.7 12.9 0.00 0.00 0.00 45 1015.8
20260503204915 12 95 12.9 16.1 0.00 0.00 0.00 40 1016.0
20260503204413 12 64 16.1 19.3 0.00 0.00 0.00 39 1016.1
20260503203910 12 60 12.9 19.3 0.00 0.00 0.00 39 1016.1
20260503203407 13 40 11.3 16.1 0.00 0.00 0.00 38 1016.1
20260503202904 14 35 17.7 19.3 0.00 0.00 0.00 38 1016.1
20260503202402 14 22 8.0 14.5 0.00 0.00 0.00 41 1016.3
20260503201900 12 57 11.3 17.7 0.00 0.00 0.00 40 1016.2
20260503201357 13 333 8.0 17.7 0.00 0.00 0.00 41 1016.1
20260503200855 13 48 12.9 25.7 0.00 0.00 0.00 38 1016.3
20260503200350 13 97 6.4 16.1 0.00 0.00 0.00 43 1016.3
20260503195848 12 115 12.9 14.5 0.00 0.00 0.00 40 1016.4
20260503195344 12 41 16.1 24.1 0.00 0.00 0.00 41 1016.3
20260503194841 13 42 11.3 17.7 0.00 0.00 0.00 40 1016.5
20260503194337 13 73 11.3 24.1 0.00 0.00 0.00 43 1016.5
20260503193834 12 58 17.7 24.1 0.00 0.00 0.00 39 1016.5
20260503193330 13 29 8.0 25.7 0.00 0.00 0.00 39 1016.5
20260503192826 13 54 9.7 16.1 0.00 0.00 0.00 42 1016.7
20260503192321 12 46 6.4 16.1 0.00 0.00 0.00 40 1016.7
20260503191818 13 59 14.5 24.1 0.00 0.00 0.00 39 1016.8
20260503191315 12 21 8.0 16.1 0.00 0.00 0.00 44 1016.8
20260503190812 12 34 11.3 24.1 0.00 0.00 0.00 41 1016.9
20260503190309 12 102 11.3 24.1 0.00 0.00 0.00 42 1017.1
20260503185806 13 41 17.7 25.7 0.00 0.00 0.00 41 1016.7
20260503185301 12 24 11.3 20.9 0.00 0.00 0.00 40 1017.0
20260503184801 13 247 3.2 16.1 0.00 0.00 0.00 44 1016.9
20260503184258 13 73 14.5 30.6 0.00 0.00 0.00 41 1017.0
20260503183753 12 67 14.5 24.1 0.00 0.00 0.00 41 1017.3
20260503183252 12 47 12.9 22.5 0.00 0.00 0.00 42 1017.2
20260503182749 12 42 6.4 30.6 0.00 0.00 0.00 45 1017.1
20260503182248 13 61 6.4 11.3 0.00 0.00 0.00 50 1017.1
20260503181744 12 29 12.9 14.5 0.00 0.00 0.00 40 1017.3
20260503181241 12 13 6.4 30.6 0.00 0.00 0.00 47 1017.2
20260503180737 12 28 16.1 29.0 0.00 0.00 0.00 43 1017.4
20260503180236 12 116 20.9 20.9 0.00 0.00 0.00 42 1017.3
20260503175732 11 32 9.7 19.3 0.00 0.00 0.00 42 1017.4
20260503175230 12 48 16.1 19.3 0.00 0.00 0.00 42 1017.3
20260503174726 11 35 4.8 22.5 0.00 0.00 0.00 45 1017.6
20260503174224 11 43 12.9 16.1 0.00 0.00 0.00 44 1017.6
20260503173724 12 36 8.0 19.3 0.00 0.00 0.00 44 1017.3
20260503173221 12 61 12.9 14.5 0.00 0.00 0.00 44 1017.6
20260503172718 11 52 9.7 17.7 0.00 0.00 0.00 43 1017.6
20260503172215 11 55 16.1 22.5 0.00 0.00 0.00 43 1017.4
20260503171711 11 63 9.7 19.3 0.00 0.00 0.00 44 1017.6
20260503171208 12 109 20.9 24.1 0.00 0.00 0.00 45 1017.6
20260503170705 11 69 9.7 16.1 0.00 0.00 0.00 44 1017.6
20260503170202 12 85 14.5 19.3 0.00 0.00 0.00 45 1017.7
20260503160124 10 102 12.9 24.1 0.00 0.00 0.00 43 1018.3
20260503150553 9 113 4.8 19.3 0.00 0.00 0.00 49 1018.9
20260503130943 6 99 9.7 14.5 0.00 0.00 0.00 64 1019.2
20260503130441 5 79 8.0 12.9 0.00 0.00 0.00 64 1019.2
20260503110331 1 56 3.2 6.4 0.00 0.00 0.00 78 1018.5
20260503100257 0 247 1.6 4.8 0.00 0.00 0.00 82 1017.9
20260503090217 1 345 1.6 4.8 0.00 0.00 0.00 76 1017.9
20260503081144 1 222 1.6 3.2 0.00 0.00 0.00 74 1017.8
20260503080640 1 105 3.2 4.8 0.00 0.00 0.00 74 1017.6
20260503080137 1 302 3.2 3.2 0.00 0.00 0.00 74 1017.5
20260503072614 1 29 1.6 3.2 0.00 0.00 0.00 73 1017.4
20260503072111 1 103 0.0 8.0 0.00 0.00 0.00 72 1017.4
20260503071608 1 61 3.2 3.2 0.00 0.00 0.00 72 1017.5
20260503071104 1 313 3.2 4.8 0.00 0.00 0.00 72 1017.3
20260503070601 1 144 6.4 6.4 0.00 0.00 0.00 73 1017.2
20260503055020 2 29 1.6 3.2 0.00 0.00 0.00 69 1017.4
20260503054516 2 103 3.2 4.8 0.00 0.00 0.00 69 1017.4
20260503054014 2 147 0.0 3.2 0.00 0.00 0.00 68 1017.4
20260503053512 2 72 4.8 6.4 0.00 0.00 0.00 67 1017.5
20260503053009 3 19 6.4 9.7 0.00 0.00 0.00 65 1017.5
20260503052505 3 110 1.6 6.4 0.00 0.00 0.00 66 1017.5
20260503052002 3 62 9.7 11.3 0.00 0.00 0.00 65 1017.5
20260503051457 3 77 1.6 6.4 0.00 0.00 0.00 68 1017.6
20260503050956 3 21 3.2 3.2 0.00 0.00 0.00 67 1017.5
20260503050451 3 92 3.2 6.4 0.00 0.00 0.00 66 1017.5
20260503045949 3 72 4.8 8.0 0.00 0.00 0.00 67 1017.7